This is the latest recevied weather packets stored in our database for station/object K5NAN. If no packets are shown the sender has not sent any weather packets the latest 10 day(s).
| Time | Temp. | Humidity | Pressure | Rain* | Wind** | Luminosity | Snow |
|---|---|---|---|---|---|---|---|
| 1777567839 | 16.67° C | 78% | 1015 hPa | 0 mm | - | 130 W/m² | - |
| 1777567535 | 16.67° C | 79% | 1015 hPa | 0 mm | - | 144 W/m² | - |
| 1777567232 | 16.67° C | 79% | 1014.9 hPa | 0 mm | - | 175 W/m² | - |
| 1777566931 | 16.11° C | 79% | 1014.7 hPa | 0 mm | - | 155 W/m² | - |
| 1777566628 | 16.11° C | 80% | 1015.1 hPa | 0 mm | - | 139 W/m² | - |
| 1777566326 | 16.11° C | 80% | 1015.2 hPa | 0 mm | - | 107 W/m² | - |
| 1777566023 | 16.11° C | 80% | 1015.5 hPa | 0 mm | - | 50 W/m² | - |
| 1777565718 | 16.67° C | 80% | 1015.3 hPa | 0 mm | - | 78 W/m² | - |
| 1777565415 | 16.67° C | 80% | 1015 hPa | 0 mm | - | 70 W/m² | - |
| 1777565111 | 16.67° C | 81% | 1014.6 hPa | 0 mm | - | 102 W/m² | - |
| 1777564808 | 16.67° C | 81% | 1014.7 hPa | 0 mm | - | 116 W/m² | - |
| 1777564503 | 16.67° C | 81% | 1014.6 hPa | 0 mm | - | 115 W/m² | - |
| 1777564198 | 16.67° C | 81% | 1014.5 hPa | 0 mm | - | 146 W/m² | - |
| 1777563894 | 16.67° C | 82% | 1014.6 hPa | 0 mm | - | 157 W/m² | - |
| 1777563591 | 16.67° C | 82% | 1014.5 hPa | 0 mm | - | 172 W/m² | - |
| 1777563290 | 16.11° C | 82% | 1014.2 hPa | 0 mm | - | 149 W/m² | - |
| 1777562987 | 16.11° C | 82% | 1014.1 hPa | 0 mm | - | 128 W/m² | - |
| 1777562683 | 16.67° C | 82% | 1013.7 hPa | 0 mm | - | 133 W/m² | - |
| 1777562377 | 16.67° C | 81% | 1013.9 hPa | 0 mm | - | 152 W/m² | - |
| 1777562073 | 16.67° C | 82% | 1013.8 hPa | 0 mm | - | 207 W/m² | - |
| 1777561770 | 16.67° C | 81% | 1013.6 hPa | 0 mm | - | 215 W/m² | - |
| 1777561466 | 16.67° C | 81% | 1013.5 hPa | 0 mm | - | 285 W/m² | - |
| 1777561162 | 16.67° C | 81% | 1013.6 hPa | 0 mm | - | 256 W/m² | - |
| 1777560862 | 16.67° C | 81% | 1013.5 hPa | 0 mm | - | 205 W/m² | - |
| 1777560560 | 16.67° C | 82% | 1013.4 hPa | 0 mm | - | 212 W/m² | - |
* Rain latest hour (hover to see other rain measurements)
** Current wind speed in m/s (hover to see current wind gust speed)